Regional Weather Roundup
Issued by NWS

Home | Current Version | Previous Version | Graphics & Text | Print | Product List | Glossary On
Versions: 1 2 3 4 5 6 7 8 9 10 11 12 13 14 15 16 17 18 19 20 21 22 23 24 25 26 27 28 29 30 31 32 33 34 35 36 37 38 39 40 41 42 43 44 45 46 47 48 49 50
000
ASUS43 KTOP 250308
RWRKS

WEATHER ROUNDUP FOR KANSAS
NATIONAL WEATHER SERVICE GOODLAND KS
1000 PM CDT WED MAY 24 2017

NOTE:  "FAIR" INDICATES FEW OR NO CLOUDS BELOW 12,000 FEET WITH NO
SIGNIFICANT WEATHER AND/OR OBSTRUCTIONS TO VISIBILITY.

KSZ001>006-013>018-027>032-041>047-250400-
NORTHWEST KANSAS

CITY           SKY/WX    TMP DP  RH WIND       PRES   REMARKS
GOODLAND       CLEAR     62  46  55 S15       29.57S
HAYS           CLEAR     56  47  71 SE12      29.65S
HILL CITY      CLEAR     57  46  66 SE9       29.62F
RUSSELL        CLEAR     54  47  77 SE9       29.66R
$$

KSZ061>065-074>080-084>089-250400-
SOUTHWEST KANSAS

CITY           SKY/WX    TMP DP  RH WIND       PRES   REMARKS
DODGE CITY     CLEAR     59  47  64 SE12      29.65S
ELKHART          N/A     61  43  51 SE10        N/A
GARDEN CITY    CLEAR     61  45  55 SE13      29.62S
GREAT BEND     CLEAR     57  47  69 E8        29.66F
LIBERAL        CLEAR     63  48  58 SE15      29.64R
PRATT          CLEAR     56  43  61 SE6       29.68S
$$

KSZ066>073-081>083-090>101-250400-
SOUTHEAST KANSAS

CITY           SKY/WX    TMP DP  RH WIND       PRES   REMARKS
CHANUTE        CLEAR     53  47  79 CALM      29.69S
COFFEYVILLE    CLEAR     55  51  86 CALM      29.70S
HUTCHINSON     CLEAR     52  46  80 SE6       29.69R
MEDICINE LODGE   N/A     59  45  59 E8        29.67S
NEWTON         CLEAR     54  47  77 SE6       29.71R
PARSONS        CLEAR     52  48  86 CALM      29.71S
WICHITA INTL   CLEAR     56  45  66 SE5       29.70R
WICHITA JABRA  CLEAR     57  44  62 SE3       29.70R
WICHITA MCCONL CLEAR     58  43  56 SE3       29.70R
WINFIELD       CLEAR     59  45  59 E3        29.72S
$$

KSZ007>012-019>026-033>040-048>060-102>105-250400-
NORTHEAST KANSAS

CITY           SKY/WX    TMP DP  RH WIND       PRES   REMARKS
CONCORDIA      CLEAR     52  46  80 S8        29.67S
EMPORIA        CLEAR     56  46  69 SW5       29.70R
LAWRENCE       CLEAR     53  52  96 CALM      29.69R
MANHATTAN      CLEAR     52  48  86 CALM      29.69R
MARYSVILLE     CLEAR     54  46  76 SE3       29.68S
OLATHE IND     CLEAR     55  48  77 CALM      29.69S
OLATHE EXE     CLEAR     56  48  74 CALM      29.69R
SALINA         CLEAR     60  47  61 SE6       29.69R
TOPEKA BILLARD CLEAR     58  51  78 CALM      29.68S
TOPEKA FORBES  CLEAR     56  51  84 SE3       29.68S
$$




USA.gov is the U.S. government's official web portal to all federal, state and local government web resources and services.